Time,TemperatureF,DewpointF,PressureIn,WindDirection,WindDirectionDegrees,WindSpeedMPH,WindSpeedGustMPH,Humidity,HourlyPrecipIn,Conditions,Clouds,dailyrainin,SoftwareType,DateUTC
2013-08-11 00:02:00,65.0,58.0,30.10,NNW,328,2.0,5.0,78,0.00,,,0.00,,2013-08-11 05:02:00,
2013-08-11 00:17:00,65.0,58.0,30.10,NNW,327,3.0,5.0,78,0.00,,,0.00,,2013-08-11 05:17:00,
2013-08-11 00:24:00,65.0,58.0,30.10,NNW,327,3.0,5.0,78,0.00,,,0.00,,2013-08-11 05:24:00,
2013-08-11 00:35:00,64.0,57.0,30.10,NW,317,2.0,5.0,78,0.00,,,0.00,,2013-08-11 05:35:00,
2013-08-11 00:45:00,64.0,57.0,30.10,NW,323,2.0,6.0,79,0.00,,,0.00,,2013-08-11 05:45:00,
2013-08-11 00:54:00,64.0,57.0,30.10,NW,323,2.0,6.0,79,0.00,,,0.00,,2013-08-11 05:54:00,
2013-08-11 01:17:00,64.0,57.0,30.09,NW,306,1.0,5.0,79,0.00,,,0.00,,2013-08-11 06:17:00,
2013-08-11 01:25:00,64.0,57.0,30.09,NW,306,1.0,5.0,79,0.00,,,0.00,,2013-08-11 06:25:00,
2013-08-11 01:35:00,63.0,56.0,30.09,WNW,300,0.0,3.0,79,0.00,,,0.00,,2013-08-11 06:35:00,
2013-08-11 01:48:00,63.0,56.0,30.09,WNW,300,0.0,2.0,79,0.00,,,0.00,,2013-08-11 06:48:00,
2013-08-11 01:55:00,63.0,56.0,30.09,WNW,300,0.0,2.0,79,0.00,,,0.00,,2013-08-11 06:55:00,
2013-08-11 02:06:00,62.0,56.0,30.09,WNW,300,0.0,1.0,80,0.00,,,0.00,,2013-08-11 07:06:00,
2013-08-11 02:24:00,62.0,56.0,30.09,WNW,300,0.0,2.0,82,0.00,,,0.00,,2013-08-11 07:24:00,
2013-08-11 02:36:00,62.0,56.0,30.09,WNW,303,1.0,3.0,82,0.00,,,0.00,,2013-08-11 07:36:00,
2013-08-11 02:44:00,62.0,57.0,30.09,NNW,335,1.0,4.0,83,0.00,,,0.00,,2013-08-11 07:44:00,
2013-08-11 02:54:00,62.0,57.0,30.09,NNW,335,1.0,4.0,83,0.00,,,0.00,,2013-08-11 07:54:00,
2013-08-11 03:25:00,61.0,56.0,30.09,NW,316,2.0,5.0,85,0.00,,,0.00,,2013-08-11 08:25:00,
2013-08-11 03:35:00,60.0,56.0,30.09,WNW,302,0.0,5.0,86,0.00,,,0.00,,2013-08-11 08:35:00,
2013-08-11 03:46:00,60.0,56.0,30.09,NW,326,0.0,4.0,87,0.00,,,0.00,,2013-08-11 08:46:00,
2013-08-11 03:56:00,60.0,56.0,30.09,NW,326,0.0,4.0,87,0.00,,,0.00,,2013-08-11 08:56:00,
2013-08-11 04:15:00,59.0,55.0,30.09,NW,311,0.0,3.0,88,0.00,,,0.00,,2013-08-11 09:15:00,
2013-08-11 04:27:00,59.0,55.0,30.09,NW,311,0.0,3.0,88,0.00,,,0.00,,2013-08-11 09:27:00,
2013-08-11 04:35:00,58.0,55.0,30.10,NW,312,0.0,3.0,89,0.00,,,0.00,,2013-08-11 09:35:00,
2013-08-11 04:43:00,58.0,55.0,30.09,NW,315,0.0,3.0,90,0.00,,,0.00,,2013-08-11 09:43:00,
2013-08-11 05:05:00,58.0,55.0,30.09,NW,316,1.0,6.0,90,0.00,,,0.00,,2013-08-11 10:05:00,
2013-08-11 05:14:00,59.0,56.0,30.09,NNW,328,2.0,7.0,89,0.00,,,0.00,,2013-08-11 10:14:00,
2013-08-11 05:45:00,60.0,56.0,30.09,NW,316,2.0,4.0,86,0.00,,,0.00,,2013-08-11 10:45:00,
2013-08-11 05:55:00,60.0,56.0,30.09,NW,316,2.0,4.0,86,0.00,,,0.00,,2013-08-11 10:55:00,
2013-08-11 06:06:00,59.0,55.0,30.09,NW,320,0.0,4.0,86,0.00,,,0.00,,2013-08-11 11:06:00,
2013-08-11 06:24:00,59.0,55.0,30.09,NNW,331,1.0,4.0,87,0.00,,,0.00,,2013-08-11 11:24:00,
2013-08-11 06:36:00,58.0,54.0,30.09,NNW,331,0.0,1.0,88,0.00,,,0.00,,2013-08-11 11:36:00,
2013-08-11 06:47:00,58.0,54.0,30.10,NNW,331,0.0,1.0,88,0.00,,,0.00,,2013-08-11 11:47:00,
2013-08-11 06:56:00,58.0,54.0,30.10,NNW,331,0.0,1.0,88,0.00,,,0.00,,2013-08-11 11:56:00,
2013-08-11 07:06:00,59.0,55.0,30.10,WNW,297,1.0,3.0,88,0.00,,,0.00,,2013-08-11 12:06:00,
2013-08-11 07:15:00,60.0,56.0,30.11,NW,307,1.0,4.0,86,0.00,,,0.00,,2013-08-11 12:15:00,
2013-08-11 07:45:00,62.0,57.0,30.11,NW,325,2.0,6.0,83,0.00,,,0.00,,2013-08-11 12:45:00,
2013-08-11 07:54:00,62.0,57.0,30.11,NW,325,2.0,6.0,83,0.00,,,0.00,,2013-08-11 12:54:00,
2013-08-11 08:16:00,64.0,58.0,30.11,North,355,1.0,4.0,81,0.00,,,0.00,,2013-08-11 13:16:00,
2013-08-11 08:24:00,64.0,58.0,30.11,North,355,1.0,4.0,81,0.00,,,0.00,,2013-08-11 13:24:00,
2013-08-11 08:39:00,65.0,58.0,30.11,NNW,327,1.0,3.0,79,0.00,,,0.00,,2013-08-11 13:39:00,
2013-08-11 08:45:00,67.0,59.0,30.11,North,360,1.0,3.0,76,0.00,,,0.00,,2013-08-11 13:45:00,
2013-08-11 08:55:00,67.0,59.0,30.11,North,360,1.0,3.0,76,0.00,,,0.00,,2013-08-11 13:55:00,
2013-08-11 09:04:00,68.0,61.0,30.11,NNW,343,0.0,3.0,77,0.00,,,0.00,,2013-08-11 14:04:00,
2013-08-11 09:16:00,70.0,59.0,30.11,North,5,2.0,5.0,67,0.00,,,0.00,,2013-08-11 14:16:00,
2013-08-11 09:34:00,70.0,58.0,30.12,North,360,2.0,5.0,66,0.00,,,0.00,,2013-08-11 14:34:00,
2013-08-11 09:47:00,72.0,60.0,30.11,NNW,348,2.0,4.0,65,0.00,,,0.00,,2013-08-11 14:47:00,
2013-08-11 09:56:00,72.0,60.0,30.11,NNW,348,2.0,4.0,65,0.00,,,0.00,,2013-08-11 14:56:00,
2013-08-11 10:07:00,72.0,60.0,30.12,North,5,1.0,6.0,65,0.00,,,0.00,,2013-08-11 15:07:00,
2013-08-11 10:14:00,74.0,59.0,30.12,NNE,15,1.0,3.0,60,0.00,,,0.00,,2013-08-11 15:14:00,
2013-08-11 10:24:00,74.0,59.0,30.12,NNE,15,1.0,3.0,60,0.00,,,0.00,,2013-08-11 15:24:00,
2013-08-11 10:37:00,74.0,60.0,30.12,NW,310,1.0,6.0,62,0.00,,,0.00,,2013-08-11 15:37:00,
2013-08-11 10:48:00,75.0,62.0,30.12,NNE,12,0.0,4.0,64,0.00,,,0.00,,2013-08-11 15:48:00,
2013-08-11 11:08:00,75.0,61.0,30.12,WNW,295,2.0,4.0,62,0.00,,,0.00,,2013-08-11 16:08:00,
2013-08-11 11:13:00,76.0,61.0,30.12,NNW,343,2.0,4.0,60,0.00,,,0.00,,2013-08-11 16:13:00,
2013-08-11 11:27:00,76.0,61.0,30.12,NNW,343,2.0,4.0,60,0.00,,,0.00,,2013-08-11 16:27:00,
2013-08-11 11:38:00,76.0,60.0,30.12,WNW,282,1.0,7.0,57,0.00,,,0.00,,2013-08-11 16:38:00,
2013-08-11 11:55:00,77.0,62.0,30.13,North,360,2.0,6.0,60,0.00,,,0.00,,2013-08-11 16:55:00,
2013-08-11 12:13:00,77.0,61.0,30.12,NE,40,2.0,6.0,58,0.00,,,0.00,,2013-08-11 17:13:00,
2013-08-11 12:25:00,77.0,61.0,30.12,NE,40,2.0,6.0,58,0.00,,,0.00,,2013-08-11 17:25:00,
2013-08-11 12:35:00,78.0,60.0,30.12,ENE,65,0.0,4.0,54,0.00,,,0.00,,2013-08-11 17:35:00,
2013-08-11 12:45:00,78.0,60.0,30.11,NNE,21,1.0,5.0,54,0.00,,,0.00,,2013-08-11 17:45:00,
2013-08-11 12:54:00,78.0,60.0,30.11,NNE,21,1.0,5.0,54,0.00,,,0.00,,2013-08-11 17:54:00,
2013-08-11 13:06:00,78.0,61.0,30.11,NW,325,1.0,6.0,55,0.00,,,0.00,,2013-08-11 18:06:00,
2013-08-11 13:17:00,78.0,62.0,30.11,North,9,1.0,6.0,57,0.00,,,0.00,,2013-08-11 18:17:00,
2013-08-11 13:26:00,78.0,62.0,30.11,North,9,1.0,6.0,57,0.00,,,0.00,,2013-08-11 18:26:00,
2013-08-11 13:38:00,79.0,63.0,30.11,ESE,106,1.0,5.0,59,0.00,,,0.00,,2013-08-11 18:38:00,
2013-08-11 13:46:00,80.0,63.0,30.10,NNE,31,1.0,5.0,57,0.00,,,0.00,,2013-08-11 18:46:00,
2013-08-11 14:15:00,80.0,61.0,30.10,South,176,1.0,4.0,53,0.00,,,0.00,,2013-08-11 19:15:00,
2013-08-11 14:25:00,80.0,61.0,30.10,South,176,1.0,4.0,53,0.00,,,0.00,,2013-08-11 19:25:00,
2013-08-11 14:33:00,81.0,64.0,30.10,NE,40,0.0,4.0,56,0.00,,,0.00,,2013-08-11 19:33:00,
2013-08-11 14:48:00,81.0,64.0,30.09,North,5,1.0,4.0,56,0.00,,,0.00,,2013-08-11 19:48:00,
2013-08-11 14:56:00,81.0,64.0,30.09,North,5,1.0,4.0,56,0.00,,,0.00,,2013-08-11 19:56:00,
2013-08-11 15:06:00,81.0,63.0,30.09,North,5,1.0,4.0,55,0.00,,,0.00,,2013-08-11 20:06:00,
2013-08-11 15:18:00,81.0,62.0,30.09,SW,224,0.0,3.0,53,0.00,,,0.00,,2013-08-11 20:18:00,
2013-08-11 15:27:00,81.0,62.0,30.09,SW,224,0.0,3.0,53,0.00,,,0.00,,2013-08-11 20:27:00,
2013-08-11 15:38:00,81.0,63.0,30.09,West,261,0.0,3.0,54,0.00,,,0.00,,2013-08-11 20:38:00,
2013-08-11 15:46:00,80.0,63.0,30.08,South,187,2.0,5.0,56,0.00,,,0.00,,2013-08-11 20:46:00,
2013-08-11 15:54:00,80.0,63.0,30.08,South,187,2.0,5.0,56,0.00,,,0.00,,2013-08-11 20:54:00,
2013-08-11 16:07:00,81.0,64.0,30.07,SW,227,0.0,5.0,56,0.00,,,0.00,,2013-08-11 21:07:00,
2013-08-11 16:13:00,80.0,64.0,30.07,SE,125,0.0,4.0,59,0.00,,,0.00,,2013-08-11 21:13:00,
2013-08-11 16:27:00,80.0,64.0,30.07,SE,125,0.0,4.0,59,0.00,,,0.00,,2013-08-11 21:27:00,
2013-08-11 16:34:00,81.0,64.0,30.07,SSW,201,2.0,5.0,57,0.00,,,0.00,,2013-08-11 21:34:00,
2013-08-11 16:46:00,81.0,64.0,30.06,South,181,0.0,4.0,57,0.00,,,0.00,,2013-08-11 21:46:00,
2013-08-11 16:54:00,81.0,64.0,30.06,South,181,0.0,4.0,57,0.00,,,0.00,,2013-08-11 21:54:00,
2013-08-11 17:04:00,82.0,66.0,30.06,SW,228,2.0,5.0,58,0.00,,,0.00,,2013-08-11 22:04:00,
2013-08-11 17:14:00,80.0,64.0,30.05,SSW,196,2.0,5.0,58,0.00,,,0.00,,2013-08-11 22:14:00,
2013-08-11 17:25:00,80.0,64.0,30.05,SSW,196,2.0,5.0,58,0.00,,,0.00,,2013-08-11 22:25:00,
2013-08-11 17:35:00,81.0,64.0,30.05,West,270,1.0,5.0,56,0.00,,,0.00,,2013-08-11 22:35:00,
2013-08-11 17:46:00,81.0,65.0,30.05,SW,217,2.0,6.0,58,0.00,,,0.00,,2013-08-11 22:46:00,
2013-08-11 17:55:00,81.0,65.0,30.05,SW,217,2.0,6.0,58,0.00,,,0.00,,2013-08-11 22:55:00,
2013-08-11 18:04:00,81.0,65.0,30.04,WSW,246,1.0,5.0,59,0.00,,,0.00,,2013-08-11 23:04:00,
2013-08-11 18:35:00,80.0,64.0,30.04,SSW,206,1.0,4.0,59,0.00,,,0.00,,2013-08-11 23:35:00,
2013-08-11 18:56:00,79.0,65.0,30.04,SSW,195,3.0,5.0,62,0.00,,,0.00,,2013-08-11 23:56:00,
2013-08-11 19:16:00,77.0,66.0,30.04,SSW,207,1.0,4.0,68,0.00,,,0.00,,2013-08-12 00:16:00,
2013-08-11 19:24:00,77.0,66.0,30.04,SSW,207,1.0,4.0,68,0.00,,,0.00,,2013-08-12 00:24:00,
2013-08-11 19:48:00,75.0,67.0,30.04,SSW,207,0.0,1.0,75,0.00,,,0.00,,2013-08-12 00:48:00,
2013-08-11 19:53:00,75.0,67.0,30.04,SSW,207,0.0,1.0,75,0.00,,,0.00,,2013-08-12 00:53:00,
2013-08-11 20:06:00,74.0,66.0,30.05,SSW,207,0.0,1.0,77,0.00,,,0.00,,2013-08-12 01:06:00,
2013-08-11 20:14:00,73.0,66.0,30.04,SSW,207,0.0,0.0,79,0.00,,,0.00,,2013-08-12 01:14:00,
2013-08-11 20:24:00,73.0,66.0,30.04,SSW,207,0.0,0.0,79,0.00,,,0.00,,2013-08-12 01:24:00,
2013-08-11 20:36:00,71.0,66.0,30.04,SSW,207,0.0,0.0,83,0.00,,,0.00,,2013-08-12 01:36:00,
2013-08-11 20:45:00,71.0,66.0,30.04,SSW,207,0.0,0.0,83,0.00,,,0.00,,2013-08-12 01:45:00,
2013-08-11 20:56:00,70.0,65.0,30.05,SSW,207,0.0,0.0,85,0.00,,,0.00,,2013-08-12 01:56:00,
2013-08-11 21:06:00,69.0,65.0,30.05,SSW,207,0.0,0.0,87,0.00,,,0.00,,2013-08-12 02:06:00,
2013-08-11 21:14:00,69.0,65.0,30.05,SSW,207,0.0,0.0,87,0.00,,,0.00,,2013-08-12 02:14:00,
2013-08-11 21:23:00,68.0,64.0,30.05,SSW,207,0.0,0.0,88,0.00,,,0.00,,2013-08-12 02:23:00,
2013-08-11 21:35:00,67.0,64.0,30.05,SSW,207,0.0,0.0,89,0.00,,,0.00,,2013-08-12 02:35:00,
2013-08-11 21:59:00,66.0,63.0,30.05,SSW,207,0.0,0.0,90,0.00,,,0.00,,2013-08-12 02:59:00,
2013-08-11 22:14:00,65.0,62.0,30.06,SSW,207,0.0,0.0,90,0.00,,,0.00,,2013-08-12 03:14:00,
2013-08-11 22:25:00,66.0,63.0,30.06,SSW,207,0.0,1.0,89,0.00,,,0.00,,2013-08-12 03:25:00,
2013-08-11 22:37:00,67.0,63.0,30.06,SSW,207,0.0,2.0,86,0.00,,,0.00,,2013-08-12 03:37:00,
2013-08-11 22:45:00,67.0,63.0,30.06,SSW,207,0.0,2.0,86,0.00,,,0.00,,2013-08-12 03:45:00,
2013-08-11 23:00:00,67.0,63.0,30.05,SSW,207,0.0,1.0,86,0.00,,,0.00,,2013-08-12 04:00:00,
2013-08-11 23:02:00,67.0,63.0,30.05,SSW,207,0.0,3.0,87,0.00,,,0.00,,2013-08-12 04:02:00,
2013-08-11 23:12:00,67.0,63.0,30.05,SSW,207,0.0,3.0,87,0.00,,,0.00,,2013-08-12 04:12:00,
2013-08-11 23:22:00,67.0,63.0,30.06,SSW,210,0.0,1.0,87,0.00,,,0.00,,2013-08-12 04:22:00,
2013-08-11 23:33:00,67.0,63.0,30.06,SSW,213,0.0,2.0,87,0.00,,,0.00,,2013-08-12 04:33:00,
2013-08-11 23:43:00,67.0,63.0,30.06,SSW,213,0.0,2.0,87,0.00,,,0.00,,2013-08-12 04:43:00,
2013-08-11 23:52:00,66.0,62.0,30.05,SSW,213,0.0,1.0,87,0.00,,,0.00,,2013-08-12 04:52:00,